Flag for Canada Weather past 2 weeks in Yellowknife, Northwest Territories, Canada

Now
55 °F

Passing clouds.


Feels Like: 52 °F
Forecast: 46 / 56 °F
Wind: 15 mph from Northwest

Location: Yellowknife

Current Time: Jul 31, 2014 at 12:20:47 AM

Latest Report: Jul 31, 2014 at 12:00 AM


Visibility: 3 mi

Pressure: 29.99 "Hg

Humidity: 88%

Dew point: 52 °F

Location of YellowknifeLocation

Historic Weather in Yellowknife — Graph

°F

Yellowknife temperature yesterday

Maximum temperature yesterday: 82 °F (at 2:00 PM)
Minimum temperature yesterday: 59 °F (at 11:00 PM)
Average temperature yesterday: 71 °F

Past Weeks' High & Low Weather Summary

 TemperatureHumidityPressure
High84 °F (Jul 29, 4:00 PM)100% (Jul 28, 2:00 AM)30.07 "Hg (Jul 28, 2:00 AM)
Low39 °F (Jul 18, 4:00 AM)24% (Jul 19, 6:00 PM)29.58 "Hg (Jul 19, 5:00 AM)
Average66 °F61%29.83 "Hg
* Reported Jul 15 11:00 PM — Jul 30 11:00 PM, Yellowknife, Weather by CustomWeather, © 2014

Note: Actual official high and low records may vary slightly from our data, if they occured in-between our weather recording intervals... More about our weather records

Advertising

Yellowknife weather history for previous 24 hours

 ConditionsComfort  
Time TempWeatherWind HumidityBarometerVisibility
11:00 PM
Jul 30
59 °FOvercast.16 mph88%29.96 "Hg2 mi
10:00 PM63 °FOvercast.16 mph83%29.94 "Hg1 mi
9:00 PM66 °FPartly sunny.12 mph88%29.90 "Hg2 mi
8:00 PM66 °FLight rain. Overcast.12 mph88%29.87 "Hg1 mi
7:47 PM64 °FLight rain. Overcast.10 mph88%29.87 "Hg1 mi
7:00 PM66 °FThunderstorms. Overcast.8 mph78%29.88 "Hg1 mi
6:00 PM68 °FThunderstorms. Overcast.12 mph73%29.90 "Hg5 mi
5:00 PM75 °FThunderstorms. Partly sunny.9 mph54%29.84 "Hg10 mi
4:47 PM77 °FPartly sunny.10 mph51%29.83 "Hg10 mi
4:00 PM79 °FBroken clouds.14 mph54%29.83 "Hg10 mi
3:00 PM79 °FPartly sunny.17 mph54%29.83 "Hg11 mi
2:00 PM82 °FScattered clouds.17 mph48%29.84 "Hg6 mi
1:00 PM77 °FPartly sunny.23 mph57%29.85 "Hg8 mi
12:00 PM77 °FMore clouds than sun.18 mph54%29.86 "Hg10 mi
11:00 AM77 °FMore clouds than sun.14 mph61%29.86 "Hg8 mi
10:00 AM75 °FMore clouds than sun.14 mph65%29.88 "Hg5 mi
9:00 AM72 °FMostly cloudy.9 mph78%29.92 "Hg4 mi
8:00 AM72 °FBroken clouds.9 mph73%29.93 "Hg4 mi
7:00 AM70 °FBroken clouds.7 mph73%29.93 "Hg4 mi
6:00 AM66 °FBroken clouds.7 mph78%29.93 "Hg4 mi
5:00 AM68 °FPassing clouds.7 mph69%29.93 "Hg4 mi
4:00 AM68 °FPassing clouds.8 mph60%29.94 "Hg5 mi
3:00 AM70 °FPassing clouds.7 mph57%29.94 "Hg6 mi
2:00 AM70 °FOvercast.8 mph53%29.95 "Hg10 mi
1:00 AM68 °FPassing clouds.7 mph56%29.96 "Hg15 mi
12:00 AM70 °FPassing clouds.6 mph60%29.97 "Hg15 mi
Weather by CustomWeather, © 2014

See weather overviewHow to use our weather pages